When you browse on this site, cookies collect data to enhance your experience and personalize the content and advertising you see.
Visit our Privacy Policy to learn more. By continuing to use the site, you agree to this use of cookies and data.
  • Em Portugal
  • Lista de países
  • Para 7 dias
  • Temperatura da água
  • Mapa do tempo
  • Widgets de tempo
  • user-avatar
    Iniciar Sessão

    Previsão horária em Yulara

    Hoje, 19 Novembro, Terça-feira

    Tempo Temperatura Precipitação Vento Pressão Humidade
    00:00 +25°C° 0 mm 4 m/s 717 mmHg 14%
    01:00 +23°C° 0 mm 4 m/s 716 mmHg 14%
    02:00 +22°C° 0 mm 4 m/s 716 mmHg 15%
    03:00 +21°C° 0 mm 4 m/s 715 mmHg 15%
    04:00 +21°C° 0 mm 4 m/s 716 mmHg 15%
    05:00 +21°C° 0 mm 4 m/s 716 mmHg 15%
    06:00 +21°C° 0 mm 4 m/s 717 mmHg 15%
    07:00 +26°C° 0 mm 4 m/s 717 mmHg 13%
    08:00 +30°C° 0 mm 5 m/s 717 mmHg 10%
    09:00 +35°C° 0 mm 4 m/s 717 mmHg 8%
    10:00 +37°C° 0 mm 4 m/s 717 mmHg 7%
    11:00 +38°C° 0 mm 3 m/s 716 mmHg 7%
    12:00 +39°C° 0 mm 2 m/s 716 mmHg 6%
    13:00 +40°C° 0 mm 2 m/s 715 mmHg 6%
    14:00 +41°C° 0 mm 1 m/s 714 mmHg 5%
    15:00 +41°C° 0 mm 1 m/s 714 mmHg 5%
    16:00 +40°C° 0 mm 1 m/s 714 mmHg 6%
    17:00 +39°C° 0 mm 1 m/s 714 mmHg 7%
    18:00 +37°C° 0 mm 1 m/s 714 mmHg 8%
    19:00 +36°C° 0 mm 2 m/s 714 mmHg 8%
    20:00 +33°C° 0 mm 3 m/s 714 mmHg 8%
    21:00 +32°C° 0 mm 4 m/s 714 mmHg 7%
    22:00 +30°C° 0 mm 5 m/s 714 mmHg 7%
    23:00 +29°C° 0 mm 5 m/s 714 mmHg 8%

    Amanhã, 20 Novembro, Quarta-feira

    Tempo Temperatura Precipitação Vento Pressão Humidade
    00:00 +28°C° 0 mm 6 m/s 713 mmHg 8%
    01:00 +27°C° 0 mm 6 m/s 713 mmHg 8%
    02:00 +26°C° 0 mm 6 m/s 713 mmHg 8%
    03:00 +26°C° 0 mm 6 m/s 713 mmHg 8%
    04:00 +25°C° 0 mm 5 m/s 713 mmHg 10%
    05:00 +25°C° 0 mm 3 m/s 713 mmHg 11%
    06:00 +24°C° 0 mm 2 m/s 713 mmHg 12%
    07:00 +29°C° 0 mm 4 m/s 713 mmHg 10%
    08:00 +34°C° 0 mm 5 m/s 714 mmHg 8%
    09:00 +40°C° 0 mm 7 m/s 714 mmHg 6%
    10:00 +41°C° 0 mm 7 m/s 714 mmHg 5%
    11:00 +44°C° 0 mm 8 m/s 713 mmHg 5%
    12:00 +46°C° 0 mm 8 m/s 713 mmHg 4%
    13:00 +46°C° 0 mm 8 m/s 712 mmHg 4%
    14:00 +47°C° 0 mm 9 m/s 712 mmHg 4%
    15:00 +47°C° 0 mm 9 m/s 711 mmHg 4%
    16:00 +45°C° 0 mm 8 m/s 711 mmHg 5%
    17:00 +44°C° 0 mm 8 m/s 711 mmHg 6%
    18:00 +43°C° 0 mm 7 m/s 711 mmHg 7%
    19:00 +39°C° 0 mm 6 m/s 711 mmHg 8%
    20:00 +36°C° 0 mm 5 m/s 712 mmHg 9%
    21:00 +34°C° 0 mm 4 m/s 712 mmHg 10%
    22:00 +33°C° 0 mm 7 m/s 712 mmHg 14%
    23:00 +33°C° 0 mm 9 m/s 712 mmHg 17%

    Depois de amanhã, 21 Novembro, Quinta-feira

    Tempo Temperatura Precipitação Vento Pressão Humidade
    00:00 +32°C° 0 mm 11 m/s 713 mmHg 20%
    01:00 +29°C° 0 mm 9 m/s 713 mmHg 27%
    02:00 +28°C° 0 mm 7 m/s 713 mmHg 34%
    03:00 +26°C° 0 mm 5 m/s 712 mmHg 41%
    04:00 +24°C° 0 mm 6 m/s 713 mmHg 45%
    05:00 +23°C° 0 mm 7 m/s 714 mmHg 48%
    06:00 +22°C° 0 mm 8 m/s 715 mmHg 52%
    07:00 +23°C° 0 mm 8 m/s 716 mmHg 49%
    08:00 +24°C° 0 mm 8 m/s 716 mmHg 45%
    09:00 +24°C° 0 mm 8 m/s 717 mmHg 41%
    10:00 +28°C° 0 mm 8 m/s 717 mmHg 36%
    11:00 +30°C° 0 mm 7 m/s 717 mmHg 31%
    12:00 +33°C° 0 mm 6 m/s 716 mmHg 25%
    13:00 +34°C° 0 mm 5 m/s 716 mmHg 23%
    14:00 +35°C° 0 mm 4 m/s 716 mmHg 21%
    15:00 +37°C° 0 mm 3 m/s 715 mmHg 19%
    16:00 +36°C° 0 mm 4 m/s 715 mmHg 18%
    17:00 +36°C° 0 mm 4 m/s 716 mmHg 18%
    18:00 +36°C° 0 mm 4 m/s 716 mmHg 17%
    19:00 +33°C° 0 mm 5 m/s 716 mmHg 19%
    20:00 +30°C° 0 mm 5 m/s 716 mmHg 21%
    21:00 +27°C° 0 mm 5 m/s 717 mmHg 23%
    22:00 +26°C° 0 mm 6 m/s 717 mmHg 21%
    23:00 +26°C° 0 mm 6 m/s 717 mmHg 20%

    22 Novembro, Sexta-feira

    Tempo Temperatura Precipitação Vento Pressão Humidade
    00:00 +24°C° 0 mm 6 m/s 717 mmHg 19%
    01:00 +23°C° 0 mm 6 m/s 716 mmHg 19%
    02:00 +22°C° 0 mm 5 m/s 716 mmHg 20%
    03:00 +21°C° 0 mm 5 m/s 716 mmHg 21%
    04:00 +20°C° 0 mm 5 m/s 717 mmHg 26%
    05:00 +19°C° 0 mm 5 m/s 717 mmHg 30%
    06:00 +17°C° 0 mm 6 m/s 718 mmHg 35%
    07:00 +21°C° 0 mm 7 m/s 718 mmHg 32%
    08:00 +24°C° 0 mm 7 m/s 719 mmHg 29%
    09:00 +27°C° 0 mm 8 m/s 720 mmHg 26%
    10:00 +29°C° 0 mm 8 m/s 720 mmHg 23%
    11:00 +32°C° 0 mm 7 m/s 719 mmHg 19%
    12:00 +35°C° 0 mm 6 m/s 719 mmHg 16%
    13:00 +35°C° 0 mm 5 m/s 718 mmHg 15%
    14:00 +36°C° 0 mm 3 m/s 718 mmHg 14%
    15:00 +37°C° 0 mm 2 m/s 717 mmHg 13%
    16:00 +37°C° 0 mm 2 m/s 717 mmHg 13%
    17:00 +37°C° 0 mm 2 m/s 717 mmHg 13%
    18:00 +36°C° 0 mm 2 m/s 717 mmHg 12%
    19:00 +34°C° 0 mm 2 m/s 717 mmHg 14%
    20:00 +31°C° 0 mm 3 m/s 717 mmHg 16%
    21:00 +28°C° 0 mm 3 m/s 718 mmHg 18%
    22:00 +27°C° 0 mm 4 m/s 718 mmHg 17%
    23:00 +26°C° 0 mm 5 m/s 718 mmHg 17%

    23 Novembro, Sábado

    Tempo Temperatura Precipitação Vento Pressão Humidade
    00:00 +24°C° 0 mm 6 m/s 718 mmHg 17%
    01:00 +23°C° 0 mm 6 m/s 718 mmHg 18%
    02:00 +22°C° 0 mm 5 m/s 718 mmHg 18%
    03:00 +21°C° 0 mm 5 m/s 718 mmHg 19%
    04:00 +21°C° 0 mm 5 m/s 718 mmHg 20%
    05:00 +20°C° 0 mm 6 m/s 718 mmHg 20%
    06:00 +20°C° 0 mm 6 m/s 719 mmHg 20%
    07:00 +23°C° 0 mm 7 m/s 719 mmHg 18%
    08:00 +27°C° 0 mm 8 m/s 720 mmHg 16%
    09:00 +29°C° 0 mm 10 m/s 720 mmHg 14%
    10:00 +32°C° 0 mm 9 m/s 720 mmHg 12%
    11:00 +34°C° 0 mm 8 m/s 719 mmHg 11%
    12:00 +36°C° 0 mm 7 m/s 719 mmHg 10%
    13:00 +38°C° 0 mm 6 m/s 718 mmHg 9%
    14:00 +39°C° 0 mm 6 m/s 718 mmHg 9%
    15:00 +39°C° 0 mm 5 m/s 717 mmHg 9%
    16:00 +39°C° 0 mm 5 m/s 717 mmHg 9%
    17:00 +37°C° 0 mm 5 m/s 717 mmHg 9%
    18:00 +37°C° 0 mm 5 m/s 717 mmHg 10%
    19:00 +34°C° 0 mm 5 m/s 717 mmHg 12%
    20:00 +30°C° 0 mm 5 m/s 718 mmHg 14%
    21:00 +28°C° 0 mm 6 m/s 718 mmHg 15%
    22:00 +27°C° 0 mm 6 m/s 718 mmHg 14%
    23:00 +26°C° 0 mm 7 m/s 718 mmHg 14%

    24 Novembro, Domingo

    Tempo Temperatura Precipitação Vento Pressão Humidade
    00:00 +24°C° 0 mm 7 m/s 718 mmHg 13%
    01:00 +23°C° 0 mm 6 m/s 717 mmHg 13%
    02:00 +22°C° 0 mm 6 m/s 717 mmHg 14%
    03:00 +21°C° 0 mm 5 m/s 716 mmHg 14%
    04:00 +21°C° 0 mm 5 m/s 717 mmHg 14%
    05:00 +20°C° 0 mm 5 m/s 717 mmHg 15%
    06:00 +20°C° 0 mm 5 m/s 717 mmHg 15%
    07:00 +24°C° 0 mm 6 m/s 718 mmHg 13%
    08:00 +28°C° 0 mm 8 m/s 718 mmHg 11%
    09:00 +33°C° 0 mm 9 m/s 718 mmHg 9%
    10:00 +35°C° 0 mm 8 m/s 718 mmHg 9%
    11:00 +38°C° 0 mm 7 m/s 717 mmHg 8%
    12:00 +39°C° 0 mm 6 m/s 717 mmHg 8%
    13:00 +40°C° 0 mm 4 m/s 716 mmHg 8%
    14:00 +39°C° 0 mm 3 m/s 715 mmHg 8%
    15:00 +40°C° 0 mm 1 m/s 714 mmHg 8%
    16:00 +39°C° 0 mm 1 m/s 714 mmHg 9%
    17:00 +39°C° 0 mm 2 m/s 714 mmHg 9%
    18:00 +39°C° 0 mm 3 m/s 714 mmHg 10%
    19:00 +36°C° 0 mm 3 m/s 714 mmHg 11%
    20:00 +33°C° 0 mm 3 m/s 714 mmHg 13%
    21:00 +29°C° 0 mm 3 m/s 714 mmHg 15%
    22:00 +28°C° 0 mm 3 m/s 714 mmHg 16%
    23:00 +27°C° 0 mm 3 m/s 714 mmHg 16%
    Mostrar mais